Location: Boissi�res
(45.2500°N, 2.3667°E)
Time: 16:32:04
(UTC+00:00)

CSL-04 Debris - Pass Details

Date: 03 March 2021
Orbit: 826 x 848 km, 98.9° (Epoch: 19 April)

Event Time Altitude Azimuth Distance (km) Brightness Sun altitude
Rises 18:23:01 0° 149° (SSE) 3,372 7.0 -8.3°
Reaches altitude 10° 18:25:24 10° 145° (SE) 2,445 6.3 -8.7°
Maximum altitude 18:30:39 53° 69° (ENE) 1,027 4.3 -9.6°
Drops below altitude 10° 18:35:58 10° 354° (N) 2,475 6.7 -10.5°
Sets 18:38:24 0° 350° (N) 3,417 7.5 -11.0°
